ICEYE-X21

导读

ICEYE-X21是芬兰(国家缩写FI)冰眼卫星系列的合成孔径雷达卫星,于2023年1月3日发射入轨。它延续了ICEYE星座高分辨率对地观测能力,可提供全天时、全天候雷达成像服务,在灾害监测、资源勘探、地理测绘、海洋监测等领域发挥重要作用,进一步扩充了全球商业SAR卫星星座的观测覆盖能力与重访效率,助力全球地理信息服务与应急响应能力提升。

基本信息
目录编号:
55049
目录名称:
ICEYE-X21
国际标识:
2023-001AS
轨道中心:
EARTH
卫星名称:
ICEYE-X21
卫星全名:
--
卫星状态:
在轨 (已飞行1256 天)
发射日期:
2023-01-03 UTC
国别 :
(FI)
星等 :
--
轨道信息
数据来源 国际轨道数据
星历时间: 2026-06-12T12:15:16+0800
15小时前
查看轨道信息
半长轴: 6634.493km
偏心率: 0.0002322
轨道倾角: 97.306°
近地点辐角 221.254°
升交点赤经 249.234°
平近点角 138.857°
近地点: 254.815km
远地点: 257.897km
周期: 89.634分钟
每日圈数: 16.065389
详细信息
使用方式:
暂无
2D轨道图
3D轨道图
轨道高度分析图
轨道倾角分析图
轨道综合分析图
查看轨道综合分析图